Voltar ao catálogo

COSMOS 81

AtivoMilitarLEO
NORAD 1571·PAYLOAD·🇷🇺 Russia

Lançado Sep 3, 1965 de Baikonur Cosmodrome

Loading…

Próximas Passagens (próximas 24 horas)

TLE

AtualizadoSource: Space-Track

Época: Sep 14, 2026, 10:40 UTC

1 01571U 65070B   26257.44459036 -.00000071  00000-0  15532-3 0  9997
2 01571  56.0623 321.0507 0086833 207.5171 167.5610 12.48869146783774

Acompanhe COSMOS 81 em tempo real com AllMySat

Download on the App Store